Location: Oberwangen
(47.4286°N, 8.9679°E)
Time: 21:33:50
(UTC+00:00)

Cosmos 1174 - Pass Details

Date: 20 June 2021
Orbit: 374 x 1140 km, 66.1° (Epoch: 23 July)

Event Time Altitude Azimuth Distance (km) Brightness Sun altitude
Exits shadow 23:14:03 30° 208° (SSW) 1,418 5.4 -19.1°
Maximum altitude 23:16:51 83° 125° (SE) 764 4.4 -19.1°
Drops below altitude 10° 23:21:31 10° 37° (NE) 2,041 7.4 -19.1°
Sets 23:23:33 0° 37° (NE) 2,842 8.3 -19.1°
